(97) Klotho
ephemeris date magn radius delta ra dec elong phase
Today26 Aug 202613.93.337 AU3.212 AU16h03m-08°25'88.2°17.6°
Opposition7 Aug 202711.52.780 AU1.772 AU21h00m-08°49'172.1°2.9°
(97) Klotho - 2026-08-26
astro.vanbuitenen.nl


 
-1 year
-1 month
-1 day
Now
+1 day
+1 month
+1 year

The interactive orbit chart above shows the body's path through the solar system and its position at the given date. Green and blue lines are shown perpendicular to the ecliptic plane: Green if the path is above the ecliptic plane, blue if it is below. (Left-click and drag to rotate the view; Right-click and drag to move the view; Use scroll wheel to zoom in our out.)

The orbital elements of Klotho are:

            e (Eccentricity)                : 0.2574190
            a (Semimajor axis)              : 2.6687214
            i (Inclination)                 : 11.77498
            Ω (Longitude of ascending node) : 159.57917
            ω (Argument of perihelion)      : 268.45542
            M (Mean anomaly)                : 179.26251
            Epoch                           : 2026 Jun 09

            L (Longitude of perihelion)     : 248.00140
            B (Latitude of perihelion)      : -11.77064
            P (Orbital period in years)     : 4.36            
        

The light curve chart below shows the estimated development of the minor planet's magnitude.


The all-sky chart below shows the path of the minor planet over the same period as the light curve. The current position is marked yellow.





The following chart shows the path of the minor planet in the next few days. The field of view is optimized for (~10x50) binoculars and finderscopes.




Ephemerides:
Date       Time       RA (2000)    DEC (2000)    delta   radius  elong  phase   PA    magn
2026-08-26 00:00 UT   16 03 48.4   -08 25 48     3.212    3.337   88.2   17.6   101   13.9 
2026-08-26 15:59 UT   16 04 10.4   -08 29 17     3.221    3.336   87.7   17.6   101   13.9 
2026-08-27 00:00 UT   16 04 21.5   -08 31 02     3.226    3.336   87.4   17.6   101   13.9 
2026-08-28 00:00 UT   16 04 55.6   -08 36 16     3.239    3.336   86.6   17.6   101   13.9 
2026-08-29 00:00 UT   16 05 30.6   -08 41 31     3.253    3.335   85.8   17.6   100   13.9 
2026-08-30 00:00 UT   16 06 06.4   -08 46 46     3.267    3.335   85.0   17.6   100   13.9 
2026-08-31 00:00 UT   16 06 43.2   -08 52 01     3.280    3.334   84.3   17.5   100   13.9 
2026-09-01 00:00 UT   16 07 20.8   -08 57 16     3.294    3.334   83.5   17.5   100   13.9 
2026-09-02 00:00 UT   16 07 59.3   -09 02 32     3.307    3.333   82.7   17.5    99   13.9 
2026-09-03 00:00 UT   16 08 38.7   -09 07 48     3.321    3.333   81.9   17.4    99   13.9 
2026-09-04 00:00 UT   16 09 18.9   -09 13 03     3.335    3.332   81.2   17.4    99   13.9 
2026-09-05 00:00 UT   16 09 59.9   -09 18 19     3.348    3.331   80.4   17.4    99   13.9 
2026-09-06 00:00 UT   16 10 41.8   -09 23 34     3.361    3.331   79.6   17.3    99   13.9 
2026-09-07 00:00 UT   16 11 24.5   -09 28 49     3.375    3.330   78.9   17.3    98   14.0 
2026-09-08 00:00 UT   16 12 08.1   -09 34 04     3.388    3.330   78.1   17.2    98   14.0 
2026-09-09 00:00 UT   16 12 52.4   -09 39 18     3.401    3.329   77.3   17.2    98   14.0 
2026-09-10 00:00 UT   16 13 37.6   -09 44 32     3.415    3.328   76.6   17.1    98   14.0 
2026-09-11 00:00 UT   16 14 23.5   -09 49 46     3.428    3.328   75.8   17.1    98   14.0 
2026-09-12 00:00 UT   16 15 10.3   -09 54 58     3.441    3.327   75.1   17.0    97   14.0 
2026-09-13 00:00 UT   16 15 57.8   -10 00 10     3.454    3.327   74.3   16.9    97   14.0 
2026-09-14 00:00 UT   16 16 46.0   -10 05 22     3.467    3.326   73.6   16.9    97   14.0 
2026-09-15 00:00 UT   16 17 35.1   -10 10 32     3.480    3.325   72.8   16.8    97   14.0 
2026-09-16 00:00 UT   16 18 24.9   -10 15 42     3.493    3.325   72.1   16.7    96   14.0 
2026-09-17 00:00 UT   16 19 15.4   -10 20 50     3.506    3.324   71.4   16.7    96   14.0 
2026-09-18 00:00 UT   16 20 06.6   -10 25 58     3.519    3.323   70.6   16.6    96   14.0 
2026-09-19 00:00 UT   16 20 58.6   -10 31 04     3.532    3.323   69.9   16.5    96   14.0 
2026-09-20 00:00 UT   16 21 51.2   -10 36 09     3.544    3.322   69.1   16.4    96   14.0 
2026-09-21 00:00 UT   16 22 44.6   -10 41 13     3.557    3.321   68.4   16.3    95   14.0 
2026-09-22 00:00 UT   16 23 38.6   -10 46 15     3.569    3.321   67.7   16.2    95   14.0 
2026-09-23 00:00 UT   16 24 33.3   -10 51 16     3.582    3.320   67.0   16.2    95   14.0 
2026-09-24 00:00 UT   16 25 28.7   -10 56 16     3.594    3.319   66.2   16.1    95   14.0 
2026-09-25 00:00 UT   16 26 24.8   -11 01 14     3.606    3.319   65.5   16.0    94   14.0 


    Terminology:
            
    delta:  distance between minor planet and earth in AU
    radius: distance between minor planet and sun in AU
    magn:   magnitude (brightness) estimate    
    ra:     right ascension in hours (24h = 360deg)
    dec:    declination in degrees
    elong:  elongation in degrees (angle sun-earth-minor planet)    
    phase:  phase angle in degrees (angle sun-minor planet-earth)        
    AU:     Astronomical Unit (mean distance between earth and sun: 149597870.7 km
    

Orbital elements provided by the MPC (Minor Planet Center).
Calculations by a modified version of AAPlus, a C# implementation of the AA+ project by PJ Naughter from the algorithms presented in the book "Astronomical Algorithms" by Jean Meeus.
NGC2000 dso catalog and star labels from VizieR as provided by the Strasbourg astronomical Data Center.
Tycho2 catalog from the ESO archive.